Hourly Weather Chambil

Today, 14 June, Monday

Time Temperature Precipitation Wind Pressure Humidity
00:00 +23°C° 0 mm 5 mps 698 mmHg 20%
01:00 +22°C° 0 mm 4 mps 697 mmHg 20%
02:00 +22°C° 0 mm 4 mps 697 mmHg 20%
03:00 +21°C° 0 mm 4 mps 697 mmHg 20%
04:00 +21°C° 0 mm 4 mps 697 mmHg 20%
05:00 +24°C° 0 mm 3 mps 697 mmHg 19%
06:00 +26°C° 0 mm 3 mps 698 mmHg 17%
07:00 +28°C° 0 mm 3 mps 698 mmHg 16%
08:00 +29°C° 0 mm 3 mps 698 mmHg 15%
09:00 +31°C° 0 mm 3 mps 698 mmHg 14%
10:00 +34°C° 0 mm 3 mps 698 mmHg 13%
11:00 +35°C° 0 mm 3 mps 698 mmHg 12%
12:00 +36°C° 0 mm 4 mps 697 mmHg 11%
13:00 +37°C° 0 mm 4 mps 697 mmHg 10%
14:00 +36°C° 0 mm 5 mps 697 mmHg 9%
15:00 +36°C° 0 mm 6 mps 697 mmHg 9%
16:00 +35°C° 0 mm 6 mps 697 mmHg 9%
17:00 +33°C° 0 mm 6 mps 697 mmHg 10%
18:00 +30°C° 0 mm 6 mps 697 mmHg 10%
19:00 +28°C° 0 mm 6 mps 697 mmHg 11%
20:00 +27°C° 0 mm 5 mps 697 mmHg 12%
21:00 +26°C° 0 mm 4 mps 696 mmHg 13%
22:00 +25°C° 0 mm 4 mps 696 mmHg 15%
23:00 +23°C° 0 mm 4 mps 696 mmHg 16%

Tomorrow, 15 June, Tuesday

Time Temperature Precipitation Wind Pressure Humidity
00:00 +22°C° 0 mm 4 mps 696 mmHg 17%
01:00 +21°C° 0 mm 4 mps 696 mmHg 18%
02:00 +21°C° 0 mm 3 mps 696 mmHg 19%
03:00 +20°C° 0 mm 3 mps 696 mmHg 19%
04:00 +20°C° 0 mm 3 mps 696 mmHg 20%
05:00 +22°C° 0 mm 3 mps 696 mmHg 18%
06:00 +25°C° 0 mm 3 mps 697 mmHg 16%
07:00 +27°C° 0 mm 3 mps 697 mmHg 14%
08:00 +28°C° 0 mm 3 mps 697 mmHg 12%
09:00 +30°C° 0 mm 3 mps 697 mmHg 11%
10:00 +32°C° 0 mm 2 mps 697 mmHg 9%
11:00 +34°C° 0 mm 3 mps 697 mmHg 8%
12:00 +35°C° 0 mm 4 mps 697 mmHg 7%
13:00 +36°C° 0 mm 4 mps 697 mmHg 6%
14:00 +35°C° 0 mm 5 mps 697 mmHg 6%
15:00 +35°C° 0 mm 5 mps 697 mmHg 6%
16:00 +35°C° 0 mm 6 mps 696 mmHg 6%
17:00 +33°C° 0 mm 5 mps 696 mmHg 7%
18:00 +30°C° 0 mm 4 mps 696 mmHg 9%
19:00 +28°C° 0 mm 4 mps 696 mmHg 11%
20:00 +27°C° 0 mm 4 mps 696 mmHg 11%
21:00 +26°C° 0 mm 4 mps 696 mmHg 12%
22:00 +25°C° 0 mm 3 mps 696 mmHg 13%
23:00 +24°C° 0 mm 3 mps 696 mmHg 14%

Day after tomorrow, 16 June, Wednesday

Time Temperature Precipitation Wind Pressure Humidity
00:00 +24°C° 0 mm 3 mps 696 mmHg 15%
01:00 +22°C° 0 mm 3 mps 695 mmHg 16%
02:00 +22°C° 0 mm 3 mps 696 mmHg 16%
03:00 +21°C° 0 mm 3 mps 696 mmHg 17%
04:00 +21°C° 0 mm 3 mps 696 mmHg 17%
05:00 +24°C° 0 mm 3 mps 696 mmHg 16%
06:00 +26°C° 0 mm 3 mps 697 mmHg 15%
07:00 +29°C° 0 mm 3 mps 697 mmHg 14%
08:00 +30°C° 0 mm 3 mps 697 mmHg 12%
09:00 +31°C° 0 mm 3 mps 697 mmHg 11%
10:00 +34°C° 0 mm 3 mps 698 mmHg 9%
11:00 +35°C° 0 mm 3 mps 697 mmHg 8%
12:00 +36°C° 0 mm 4 mps 697 mmHg 7%
13:00 +36°C° 0 mm 4 mps 697 mmHg 7%
14:00 +36°C° 0 mm 5 mps 697 mmHg 7%
15:00 +36°C° 0 mm 5 mps 697 mmHg 7%
16:00 +36°C° 0 mm 6 mps 697 mmHg 8%
17:00 +34°C° 0 mm 5 mps 697 mmHg 10%
18:00 +32°C° 0 mm 4 mps 697 mmHg 12%
19:00 +28°C° 0 mm 3 mps 697 mmHg 15%
20:00 +28°C° 0 mm 3 mps 697 mmHg 15%
21:00 +27°C° 0 mm 3 mps 697 mmHg 16%
22:00 +26°C° 0 mm 3 mps 697 mmHg 17%
23:00 +25°C° 0 mm 3 mps 697 mmHg 17%

17 June, Thursday

Time Temperature Precipitation Wind Pressure Humidity
00:00 +25°C° 0 mm 3 mps 697 mmHg 17%
01:00 +24°C° 0 mm 3 mps 697 mmHg 18%
02:00 +24°C° 0 mm 2 mps 697 mmHg 19%
03:00 +23°C° 0 mm 2 mps 697 mmHg 21%
04:00 +23°C° 0 mm 2 mps 697 mmHg 23%
05:00 +25°C° 0 mm 2 mps 697 mmHg 21%
06:00 +27°C° 0 mm 2 mps 697 mmHg 18%
07:00 +29°C° 0 mm 2 mps 698 mmHg 16%
08:00 +31°C° 0 mm 2 mps 698 mmHg 14%
09:00 +32°C° 0 mm 2 mps 698 mmHg 13%
10:00 +35°C° 0 mm 3 mps 698 mmHg 11%
11:00 +36°C° 0 mm 3 mps 698 mmHg 10%
12:00 +37°C° 0 mm 4 mps 697 mmHg 10%
13:00 +38°C° 0 mm 4 mps 697 mmHg 9%
14:00 +37°C° 0 mm 4 mps 697 mmHg 9%
15:00 +37°C° 0 mm 4 mps 697 mmHg 9%
16:00 +37°C° 0 mm 5 mps 697 mmHg 9%
17:00 +35°C° 0 mm 4 mps 697 mmHg 11%
18:00 +33°C° 0 mm 4 mps 697 mmHg 12%
19:00 +30°C° 0 mm 4 mps 697 mmHg 14%
20:00 +29°C° 0 mm 3 mps 697 mmHg 15%
21:00 +28°C° 0 mm 3 mps 697 mmHg 16%
22:00 +27°C° 0 mm 3 mps 697 mmHg 16%
23:00 +26°C° 0 mm 3 mps 697 mmHg 17%

18 June, Friday

Time Temperature Precipitation Wind Pressure Humidity
00:00 +26°C° 0 mm 3 mps 697 mmHg 18%
01:00 +26°C° 0 mm 2 mps 696 mmHg 19%
02:00 +25°C° 0 mm 2 mps 697 mmHg 20%
03:00 +25°C° 0 mm 2 mps 697 mmHg 20%
04:00 +25°C° 0 mm 2 mps 697 mmHg 20%
05:00 +27°C° 0 mm 2 mps 697 mmHg 18%
06:00 +29°C° 0 mm 1 mps 698 mmHg 16%
07:00 +31°C° 0 mm 1 mps 698 mmHg 14%
08:00 +34°C° 0 mm 2 mps 698 mmHg 12%
09:00 +35°C° 0 mm 2 mps 698 mmHg 11%
10:00 +37°C° 0 mm 3 mps 698 mmHg 9%
11:00 +37°C° 0 mm 3 mps 698 mmHg 9%
12:00 +38°C° 0 mm 3 mps 698 mmHg 8%
13:00 +40°C° 0 mm 4 mps 698 mmHg 7%
14:00 +40°C° 0 mm 4 mps 698 mmHg 7%
15:00 +40°C° 0 mm 4 mps 698 mmHg 7%
16:00 +40°C° 0 mm 4 mps 698 mmHg 6%
17:00 +36°C° 0 mm 4 mps 698 mmHg 8%
18:00 +34°C° 0 mm 3 mps 698 mmHg 9%
19:00 +31°C° 0 mm 3 mps 697 mmHg 11%
20:00 +30°C° 0 mm 3 mps 698 mmHg 13%
21:00 +29°C° 0 mm 3 mps 698 mmHg 14%
22:00 +28°C° 0 mm 3 mps 698 mmHg 16%
23:00 +28°C° 0 mm 3 mps 698 mmHg 17%

19 June, Saturday

Time Temperature Precipitation Wind Pressure Humidity
00:00 +27°C° 0 mm 3 mps 698 mmHg 17%
01:00 +27°C° 0 mm 3 mps 698 mmHg 18%
02:00 +27°C° 0 mm 3 mps 698 mmHg 19%
03:00 +26°C° 0 mm 3 mps 698 mmHg 19%
04:00 +26°C° 0 mm 3 mps 698 mmHg 19%
05:00 +28°C° 0 mm 3 mps 698 mmHg 17%
06:00 +31°C° 0 mm 3 mps 699 mmHg 15%
07:00 +34°C° 0 mm 3 mps 699 mmHg 13%
08:00 +35°C° 0 mm 4 mps 700 mmHg 12%
09:00 +36°C° 0 mm 4 mps 700 mmHg 11%
10:00 +37°C° 0 mm 4 mps 700 mmHg 10%
11:00 +39°C° 0 mm 5 mps 699 mmHg 9%
12:00 +40°C° 0 mm 5 mps 699 mmHg 8%
13:00 +40°C° 0 mm 5 mps 699 mmHg 8%
14:00 +39°C° 0 mm 7 mps 699 mmHg 10%
15:00 +39°C° 0 mm 8 mps 699 mmHg 12%
16:00 +38°C° 0 mm 9 mps 698 mmHg 14%
17:00 +35°C° 0 mm 8 mps 699 mmHg 18%
18:00 +33°C° 0 mm 8 mps 699 mmHg 21%
19:00 +30°C° 0 mm 7 mps 699 mmHg 25%
20:00 +28°C° 0 mm 7 mps 699 mmHg 28%
21:00 +27°C° 0 mm 7 mps 700 mmHg 30%
22:00 +24°C° 0 mm 7 mps 700 mmHg 32%
23:00 +23°C° 0 mm 7 mps 699 mmHg 30%
Show more

We Need Your Consent

Meteoprog and our Service Providers may store and access personal data such as cookies, device identifiers or other similar technologies on your device and process such data to personalise content and ads, as well as provide social media features and to analyse the traffic.

  • Store and/or access information on your device

    Cookies, device identifiers or other information can be stored or accessed on your device for the purposes indicated above.

  • Personalised ads and content, ad and content measurement, audience insights, and products development

    Ads and content can be personalised based on a profile. More data can be added to better personalise ads and content. Ad and content performance can be measured. Insights about the audience who saw the ads and content can be derived. Such data can be used to develop or improve user’s experience, systems and software.

By clicking ‘I Agree’ you will allow the use of indicated cookies, device identifiers, web beacons or other similar technologies. Your settings can be changed in the browser on your device.

For certain purposes, legitimate interests may be relied on, rather than consent. You can read more about this in our Privacy and Cookie Policy.